Location: Wiler
(46.4041°N, 7.7840°E)
Time: 18:37:30
(UTC+00:00)

STARLINK-1211 - Pass Details

Date: 09 April 2020
Orbit: 548 x 550 km, 53.0° (Epoch: 02 June)

Event Time Altitude Azimuth Distance (km) Brightness Sun altitude
Rises 20:02:19 0° 295° (WNW) 2,663 8.7 -18.7°
Reaches altitude 10° 20:04:42 10° 285° (WNW) 1,771 7.3 -19.0°
Maximum altitude 20:08:15 31° 223° (SW) 946 4.8 -19.5°
Enters shadow 20:09:17 27° 194° (SSW) 1,041 4.8 -19.6°
